TimeCST,TemperatureF,Dew PointF,Humidity,Sea Level PressureIn,VisibilityMPH,Wind Direction,Wind SpeedMPH,Gust SpeedMPH,PrecipitationIn,Events,Conditions,WindDirDegrees,DateUTC
12:15 AM,37.4,21.2,52,30.14,10.0,Calm,Calm,-,N/A,,Mostly Cloudy,0,2013-02-12 06:15:00
12:35 AM,35.6,21.2,56,30.14,10.0,Calm,Calm,-,N/A,,Overcast,0,2013-02-12 06:35:00
12:55 AM,33.8,24.8,70,30.15,10.0,NNW,4.6,-,N/A,,Overcast,330,2013-02-12 06:55:00
1:15 AM,32.0,24.8,75,30.15,10.0,Calm,Calm,-,N/A,,Scattered Clouds,0,2013-02-12 07:15:00
1:35 AM,33.8,23.0,65,30.14,10.0,Calm,Calm,-,N/A,,Partly Cloudy,0,2013-02-12 07:35:00
1:55 AM,32.0,24.8,75,30.14,10.0,Calm,Calm,-,N/A,,Mostly Cloudy,0,2013-02-12 07:55:00
2:15 AM,32.0,24.8,75,30.14,10.0,Calm,Calm,-,N/A,,Mostly Cloudy,0,2013-02-12 08:15:00
2:35 AM,32.0,24.8,75,30.13,10.0,Calm,Calm,-,N/A,,Scattered Clouds,0,2013-02-12 08:35:00
2:55 AM,32.0,24.8,75,30.12,10.0,Calm,Calm,-,N/A,,Scattered Clouds,0,2013-02-12 08:55:00
3:15 AM,30.2,24.8,80,30.11,10.0,East,3.5,-,N/A,,Partly Cloudy,100,2013-02-12 09:15:00
3:35 AM,33.8,23.0,65,30.11,10.0,ENE,3.5,-,N/A,,Clear,70,2013-02-12 09:35:00
3:55 AM,33.8,23.0,65,30.10,10.0,ENE,3.5,-,N/A,,Clear,60,2013-02-12 09:55:00
4:15 AM,32.0,23.0,69,30.09,10.0,ENE,5.8,-,N/A,,Clear,60,2013-02-12 10:15:00
4:35 AM,33.8,23.0,65,30.08,10.0,NE,3.5,-,N/A,,Clear,50,2013-02-12 10:35:00
4:55 AM,32.0,23.0,69,30.08,10.0,Calm,Calm,-,N/A,,Clear,0,2013-02-12 10:55:00
5:15 AM,32.0,23.0,69,30.09,10.0,SE,3.5,-,N/A,,Clear,140,2013-02-12 11:15:00
6:48 AM,32.0,24.8,75,30.09,10.0,Calm,Calm,-,N/A,,Mostly Cloudy,0,2013-02-12 12:48:00
7:49 AM,32.0,26.6,80,30.10,10.0,Calm,Calm,-,N/A,,Mostly Cloudy,0,2013-02-12 13:49:00
8:50 AM,35.6,24.8,65,30.07,10.0,East,4.6,-,N/A,,Overcast,80,2013-02-12 14:50:00
9:47 AM,37.4,24.8,60,30.08,10.0,NNE,4.6,-,N/A,,Overcast,30,2013-02-12 15:47:00
10:46 AM,39.2,24.8,56,30.08,10.0,East,8.1,-,N/A,,Overcast,100,2013-02-12 16:46:00
11:45 AM,39.2,26.6,61,30.08,10.0,East,5.8,-,N/A,,Overcast,100,2013-02-12 17:45:00
12:47 PM,41.0,26.6,57,30.03,10.0,ESE,8.1,-,N/A,,Overcast,110,2013-02-12 18:47:00
1:55 PM,42.8,26.6,53,29.99,10.0,ESE,9.2,-,N/A,,Overcast,110,2013-02-12 19:55:00
2:55 PM,53.6,30.2,41,29.94,10.0,West,11.5,-,N/A,,Partly Cloudy,270,2013-02-12 20:55:00
3:45 PM,41.0,28.4,61,29.94,10.0,ESE,9.2,-,N/A,,Overcast,110,2013-02-12 21:45:00
4:58 PM,41.0,28.4,61,29.92,10.0,ENE,5.8,-,N/A,,Overcast,60,2013-02-12 22:58:00
5:50 PM,41.0,28.4,61,29.90,10.0,ENE,4.6,-,N/A,,Overcast,60,2013-02-12 23:50:00
7:55 PM,35.6,33.8,93,29.96,5.0,ENE,5.8,-,N/A,Rain,Rain,60,2013-02-13 01:55:00
8:15 PM,35.6,32.0,87,29.95,3.0,NNW,5.8,-,0.03,Rain,Rain,340,2013-02-13 02:15:00
8:35 PM,35.6,33.8,93,29.95,-9999.0,North,5.8,-,0.04,Rain,Light Rain,350,2013-02-13 02:35:00
8:55 PM,35.6,33.8,93,29.96,4.0,North,4.6,-,0.06,Rain,Light Rain,350,2013-02-13 02:55:00
8:56 PM,35.6,33.8,93,29.96,4.0,North,5.8,-,N/A,Rain,Light Rain,350,2013-02-13 02:56:00
9:15 PM,35.6,33.8,93,29.96,6.0,NNW,6.9,-,N/A,Rain,Light Rain,340,2013-02-13 03:15:00
9:35 PM,35.6,33.8,93,29.96,4.0,NNW,6.9,-,0.01,Rain,Light Rain,330,2013-02-13 03:35:00
9:55 PM,33.8,33.8,100,29.97,4.0,NNW,8.1,-,0.03,Rain,Light Rain,330,2013-02-13 03:55:00
10:15 PM,32.0,32.0,100,29.97,-9999.0,NNW,6.9,-,0.04,Snow,Heavy Snow,330,2013-02-13 04:15:00
10:35 PM,32.0,32.0,100,29.96,2.5,NNW,6.9,-,0.08,Snow,Light Snow,330,2013-02-13 04:35:00
10:55 PM,32.0,32.0,100,29.96,-9999.0,NNW,5.8,-,0.28,Snow,Heavy Snow,330,2013-02-13 04:55:00
11:15 PM,32.0,32.0,100,29.95,-9999.0,NNW,5.8,-,0.09,Snow,Heavy Snow,330,2013-02-13 05:15:00
11:55 PM,32.0,32.0,100,29.95,1.2,North,6.9,-,0.28,Snow,Light Snow,350,2013-02-13 05:55:00